This is the latest recevied weather packets stored in our database for station/object W6SNO-1. If no packets are shown the sender has not sent any weather packets the latest 10 day(s).
| Time | Temp. | Humidity | Pressure | Rain* | Wind** | Luminosity | Snow |
|---|---|---|---|---|---|---|---|
| 1778115442 | 21.67° C | 59% | 1017.7 hPa | 0 mm | - | 196 W/m² | - |
| 1778115137 | 22.22° C | 57% | 1017.9 hPa | 0 mm | - | 217 W/m² | - |
| 1778114834 | 21.67° C | 58% | 1017.7 hPa | 0 mm | - | 228 W/m² | - |
| 1778114228 | 22.22° C | 55% | 1017.8 hPa | 0 mm | - | 273 W/m² | - |
| 1778113923 | 22.22° C | 55% | 1017.6 hPa | 0 mm | - | 273 W/m² | - |
| 1778113316 | 22.78° C | 54% | 1017.7 hPa | 0 mm | - | 322 W/m² | - |
| 1778113012 | 22.78° C | 54% | 1017.8 hPa | 0 mm | - | 322 W/m² | - |
| 1778111799 | 23.33° C | 54% | 1017.7 hPa | 0 mm | - | 393 W/m² | - |
| 1778111499 | 23.33° C | 54% | 1017.5 hPa | 0 mm | - | 393 W/m² | - |
| 1778110591 | 23.33° C | 55% | 1017.6 hPa | 0 mm | - | 454 W/m² | - |
| 1778110288 | 23.33° C | 55% | 1017.6 hPa | 0 mm | - | 454 W/m² | - |
| 1778109377 | 23.89° C | 52% | 1017.6 hPa | 0 mm | - | 512 W/m² | - |
| 1778109075 | 23.89° C | 52% | 1017.7 hPa | 0 mm | - | 512 W/m² | - |
| 1778106647 | 23.33° C | 51% | 1018.1 hPa | 0 mm | - | 624 W/m² | - |
| 1778106344 | 23.33° C | 51% | 1018.2 hPa | 0 mm | - | 624 W/m² | - |
| 1778106041 | 22.78° C | 53% | 1017.9 hPa | 0 mm | - | 637 W/m² | - |
| 1778103615 | 23.33° C | 52% | 1018.6 hPa | 0 mm | - | 721 W/m² | - |
| 1778103313 | 23.33° C | 52% | 1018.6 hPa | 0 mm | - | 721 W/m² | - |
| 1778102097 | 22.22° C | 56% | 1019 hPa | 0 mm | - | 755 W/m² | - |
| 1778101794 | 22.22° C | 56% | 1018.7 hPa | 0 mm | - | 755 W/m² | - |
| 1778100884 | 21.67° C | 57% | 1019.1 hPa | 0 mm | - | 774 W/m² | - |
| 1778100580 | 21.67° C | 57% | 1019.3 hPa | 0 mm | - | 774 W/m² | - |
| 1778096640 | 20° C | 61% | 1019.9 hPa | 0 mm | - | 790 W/m² | - |
| 1778096338 | 20° C | 61% | 1019.9 hPa | 0 mm | - | 790 W/m² | - |
| 1778096034 | 20° C | 62% | 1019.8 hPa | 0 mm | - | 789 W/m² | - |
* Rain latest hour (hover to see other rain measurements)
** Current wind speed in m/s (hover to see current wind gust speed)